Location: Cran-Gévrier
(45.9039°N, 6.1012°E)
Time: 05:20:20
(UTC+00:00)

Cosmos 2369 Rocket - Pass Details

Date: 09 February 2023
Orbit: 829 x 852 km, 71.0° (Epoch: 29 March)

Event Time Altitude Azimuth Distance (km) Brightness Sun altitude
Rises 18:41:26 0° 342° (NNW) 3,381 5.6 -19.3°
Reaches altitude 10° 18:45:12 10° 7° (N) 2,446 4.5 -20.0°
Enters shadow 18:47:12 14° 28° (NNE) 2,195 4.1 -20.3°
